Location: *
(12.5665°N, 8.3471°E)
Time: 08:21:36
(UTC+00:00)

Cosmos 1782 Rocket - Pass Details

Date: 23 September 2019
Orbit: 607 x 632 km, 82.5° (Epoch: 13 October)

Event Time Altitude Azimuth Distance (km) Brightness Sun altitude
Rises 03:57:05 0° 360° (N) 2,881 7.1 -20.0°
Reaches altitude 10° 03:59:18 10° 3° (N) 1,980 6.2 -19.5°
Maximum altitude 04:03:40 66° 86° (E) 677 3.9 -18.4°
Drops below altitude 10° 04:08:03 10° 168° (SSE) 1,994 6.3 -17.3°
Sets 04:10:18 0° 171° (S) 2,904 7.1 -16.8°
